Onweer van: 25-07-2021 11:00 tot: 20:00 waarschuwing voor: Onweer niveau: Geel info button


waarschuwing voor Onweer Meer informatie blitzortung!


Regen radar Meer informatie rain snow radar


Bezoek onze andere website:

Template documentation
and downloads

And another site



15 daagse weersverwachting Châtelet (BE)

  • Overzicht
  • Per uur
  • 15 dagen
  • Extra
  • Vergelijk
  • Kaarten
  • Dagkaart
  • Meer »
  • Info
  • Statistieken
  • Directe link
    Temp 6h Neerslag Wind  
 06:02     21:35    Daglengte: 15:33 Vandaag
08:00
17°
 
3
14:00
21°
2.1 mm
4
20:00
20°
3.0 mm
3
 06:04     21:34    Daglengte: 15:30 Morgen
02:00
17°
 
3
08:00
17°
 
4
14:00
19°
19.1 mm
5
warningclass
20:00
19°
22.4 mm
3
warningclass
 06:05     21:33    Daglengte: 15:28 Dinsdag 27 Jul
02:00
16°
4.0 mm
3
08:00
17°
 
3
14:00
18°
13.7 mm
4
20:00
18°
33.6 mm
4
 06:07     21:31    Daglengte: 15:24 Woensdag 28 Jul
02:00
16°
6.7 mm
4
Locatie info
Region: Wallonien
Latitude: 50.4042°N
Longitude: 4.5237°E
118 masl
Postcode: 6200
Temp/Neerslag /Baro Onweer/Dauwpunt
    Temp Baro 1h Neerslag Dauwpunt Wind UV Bewolking  
 06:02     21:35    Daglengte: 15:33 Vandaag
06:00
16°
1008.2 hPa
30%
15.4°
2
Windvlaag: 4.8 m/s
50%
07:00
16°
1008.3 hPa
18%
15.4°
2
Windvlaag: 4.4 m/s
59%
08:00
17°
1008.2 hPa
36%
15.9°
3
Windvlaag: 4.8 m/s
63%
09:00
18°
1008.2 hPa
16%
15.4°
3
Windvlaag: 6.7 m/s
30%
10:00
19°
1008.3 hPa
74%
14.6°
4
Windvlaag: 7.9 m/s
52%
11:00
20°
1008.3 hPa 0.2 mm
82%
14.3°
4
Windvlaag: 8.2 m/s
21%
12:00
20°
1008.2 hPa 0.3 mm
82%
13.4°
4
Windvlaag: 8.1 m/s
78%
13:00
20°
1008.2 hPa 0.9 mm
82%
12.0°
4
Windvlaag: 8.2 m/s
73%
14:00
21°
1007.9 hPa 0.7 mm
82%
12.1°
4
Windvlaag: 8.1 m/s
74%
15:00
20°
1008.0 hPa 0.6 mm
82%
12.3°
4
Windvlaag: 8.6 m/s
60% warningclass
16:00
21°
1008.1 hPa
80%
13.2°
4
Windvlaag: 8 m/s
72%
17:00
21°
1007.9 hPa
81%
14.3°
4
Windvlaag: 7.8 m/s
31%
18:00
21°
1007.7 hPa 1.2 mm
82%
15.3°
4
Windvlaag: 6.4 m/s
35%
19:00
20°
1007.7 hPa 1.2 mm
82%
15.2°
3
Windvlaag: 5.8 m/s
44%
20:00
20°
1007.9 hPa
77%
15.8°
3
Windvlaag: 5.1 m/s
41%
21:00
19°
1008.2 hPa
78%
15.8°
3
Windvlaag: 4.3 m/s
32%
22:00
18°
1008.6 hPa
75%
15.8°
2
Windvlaag: 4.4 m/s
29%
23:00
18°
1008.8 hPa
62%
15.4°
3
Windvlaag: 4.9 m/s
25%
 06:04     21:34    Daglengte: 15:30 Morgen
00:00
17°
1008.8 hPa
20%
15.0°
3
Windvlaag: 5.3 m/s
39%
01:00
17°
1008.8 hPa
18%
14.7°
3
Windvlaag: 5.4 m/s
34%
02:00
17°
1008.7 hPa
14%
14.4°
3
Windvlaag: 5.2 m/s
14%
03:00
16°
1008.6 hPa
14%
14.3°
3
Windvlaag: 4.5 m/s
52%
04:00
16°
1008.7 hPa
15%
14.7°
3
Windvlaag: 5.1 m/s
38%
05:00
16°
1008.8 hPa
54%
14.8°
3
Windvlaag: 5.3 m/s
17%
06:00
16°
1009.1 hPa
14%
14.8°
3
Windvlaag: 5 m/s
59%
07:00
16°
1009.3 hPa
14%
14.9°
3
Windvlaag: 4.7 m/s
27%
08:00
17°
1009.7 hPa
24%
15.2°
4
Windvlaag: 6.8 m/s
62%
09:00
17°
1009.8 hPa
75%
14.6°
4
Windvlaag: 7.4 m/s
56%
10:00
17°
1010.3 hPa 3.6 mm
82%
14.0°
4
Windvlaag: 7 m/s
62%
11:00
18°
1010.5 hPa 3.8 mm
82%
13.4°
4
Windvlaag: 6.4 m/s
62%
12:00
18°
1010.7 hPa 3.9 mm
82%
14.4°
4
Windvlaag: 6.2 m/s
62%
13:00
19°
1010.7 hPa 3.8 mm
82%
15.2°
5
Windvlaag: 7.5 m/s
64%
14:00
19°
1010.6 hPa 4.0 mm
82%
15.2°
5
Windvlaag: 7.5 m/s
73% warningclass
15:00
19°
1010.6 hPa 3.8 mm
82%
15.4°
4
Windvlaag: 7.4 m/s
22%
16:00
20°
1010.5 hPa
82%
16.0°
4
Windvlaag: 6.1 m/s
73%
17:00
20°
1010.6 hPa 4.8 mm
82%
15.2°
4
Windvlaag: 4.9 m/s
76% warningclass
18:00
19°
1010.7 hPa 4.5 mm
82%
14.2°
4
Windvlaag: 4.1 m/s
69% warningclass
19:00
19°
1010.8 hPa 4.8 mm
82%
13.6°
3
Windvlaag: 2.9 m/s
73%
20:00
19°
1011.1 hPa 4.5 mm
82%
13.6°
3
Windvlaag: 2.4 m/s
69% warningclass
21:00
18°
1011.4 hPa 4.0 mm
68%
14.3°
2
Windvlaag: 1.1 m/s
14%
22:00
17°
1011.9 hPa
14%
14.7°
2
Windvlaag: 2.6 m/s
39%
23:00
17°
1012.3 hPa
21%
14.3°
2
Windvlaag: 3.8 m/s
31%
 06:05     21:33    Daglengte: 15:28 Dinsdag 27 Jul
00:00
16°
1012.6 hPa
21%
13.4°
3
Windvlaag: 4.7 m/s
23%
01:00
16°
1012.3 hPa
21%
13.6°
3
Windvlaag: 4.8 m/s
63%
02:00
16°
1012.3 hPa
21%
13.6°
3
Windvlaag: 5 m/s
76%
03:00
16°
1012.1 hPa
21%
13.0°
3
Windvlaag: 4.7 m/s
71%
04:00
16°
1012.0 hPa
21%
12.9°
3
Windvlaag: 5.4 m/s
90%
05:00
16°
1011.9 hPa
21%
13.0°
3
Windvlaag: 5.9 m/s
92%
06:00
16°
1011.6 hPa
21%
13.6°
3
Windvlaag: 5.6 m/s
83%
07:00
16°
1011.7 hPa
21%
13.6°
3
Windvlaag: 5.1 m/s
94%
08:00
17°
1011.6 hPa
21%
13.8°
3
Windvlaag: 4.9 m/s
78%
09:00
18°
1011.8 hPa
21%
14.1°
4
Windvlaag: 7.6 m/s
88%
10:00
19°
1011.8 hPa
24%
13.4°
4
Windvlaag: 7.6 m/s
94%
11:00
20°
1011.6 hPa
21%
13.9°
4
Windvlaag: 7.8 m/s
98%
12:00
20°
1011.4 hPa
78%
13.3°
4
Windvlaag: 6.3 m/s
95%
13:00
19°
1011.7 hPa 6.5 mm
100%
14.7°
4
Windvlaag: 8.4 m/s
99%
14:00
18°
1012.0 hPa 7.2 mm
100%
14.5°
4
Windvlaag: 9 m/s
100%
15:00
18°
1011.6 hPa 6.9 mm
100%
12.7°
4
Windvlaag: 9.6 m/s
98%
16:00
19°
1011.3 hPa 6.6 mm
97%
12.0°
4
Windvlaag: 8.1 m/s
98%
17:00
19°
1011.2 hPa 6.9 mm
100%
10.4°
5
Windvlaag: 8.8 m/s
97%
18:00
19°
1011.0 hPa 6.6 mm
100%
10.0°
4
Windvlaag: 8.4 m/s
67%
19:00
18°
1010.6 hPa
100%
10.4°
5
Windvlaag: 8.8 m/s
54%
20:00
18°
1010.9 hPa 6.6 mm
100%
12.1°
4
Windvlaag: 10.9 m/s
85%
21:00
17°
1010.8 hPa 6.7 mm
100%
13.7°
4
Windvlaag: 7.4 m/s
63%
22:00
17°
1011.3 hPa
84%
14.2°
4
Windvlaag: 10.5 m/s
12%
23:00
16°
1011.3 hPa
32%
14.4°
3
Windvlaag: 7.1 m/s
28%
 06:07     21:31    Daglengte: 15:24 Woensdag 28 Jul
00:00
16°
1011.5 hPa
22%
13.6°
3
Windvlaag: 10.9 m/s
59%
01:00
16°
1011.5 hPa
24%
12.9°
3
Windvlaag: 9.7 m/s
80%
02:00
16°
1011.4 hPa
31%
13.8°
4
Windvlaag: 9.8 m/s
73%
03:00
16°
1009.6 hPa 19.5 mm
100%
15.0°
5
Windvlaag: 10 m/s
91%
04:00
15°
1009.1 hPa 19.5 mm
100%
14.8°
5
Windvlaag: 11 m/s
94%
05:00
15°
1009.5 hPa 19.5 mm
100%
14.2°
5
Windvlaag: 11 m/s
100%
Temp/Neerslag /Baro Onweer/Dauwpunt
    Temp Baro Neerslag Dauwpunt Wind Bewolking  
 06:02     21:35    Daglengte: 15:33 Vandaag
08:00
17°
1008.2 hPa   15.9°
3
63%
11:00
20°
1008.3 hPa 0.2 mm 14.3°
4
21%
14:00
21°
1007.9 hPa 1.8 mm 12.1°
4
74%
17:00
21°
1007.9 hPa 0.6 mm 14.3°
4
31%
20:00
20°
1007.9 hPa 2.4 mm 15.8°
3
41%
23:00
18°
1008.8 hPa   15.4°
3
25%
 06:04     21:34    Daglengte: 15:30 Morgen
02:00
17°
1008.7 hPa   14.4°
3
14%
05:00
16°
1008.8 hPa   14.8°
3
17%
08:00
17°
1009.7 hPa   15.2°
4
62%
11:00
18°
1010.5 hPa 7.4 mm 13.4°
4
62%
14:00
19°
1010.6 hPa 11.7 mm 15.2°
5
73% warningclass
17:00
20°
1010.6 hPa 8.6 mm 15.2°
4
76% warningclass
20:00
19°
1011.1 hPa 13.8 mm 13.6°
3
69% warningclass
23:00
17°
1012.3 hPa 4.0 mm 14.3°
2
31%
 06:05     21:33    Daglengte: 15:28 Dinsdag 27 Jul
02:00
16°
1012.3 hPa   13.6°
3
76%
05:00
16°
1011.9 hPa   13.0°
3
92%
08:00
17°
1011.6 hPa   13.8°
3
78%
11:00
20°
1011.6 hPa   13.9°
4
98%
14:00
18°
1012.0 hPa 13.7 mm 14.5°
4
100%
17:00
19°
1011.2 hPa 20.4 mm 10.4°
5
97%
20:00
18°
1010.9 hPa 13.2 mm 12.1°
4
85%
23:00
16°
1011.3 hPa 6.7 mm 14.4°
3
28%
 06:07     21:31    Daglengte: 15:24 Woensdag 28 Jul
02:00
16°
1011.4 hPa   13.8°
4
73%
05:00
15°
1009.5 hPa 58.5 mm 14.2°
5
100%
08:00
15°
1010.3 hPa 58.5 mm 14.0°
5
100%
11:00
17°
1013.5 hPa 12.9 mm 14.6°
7
1%
14:00
18°
1014.0 hPa 13.7 mm 14.1°
6
1%
17:00
19°
1014.3 hPa 13.9 mm 12.4°
5
1%
20:00
18°
1014.0 hPa 14.0 mm 13.5°
4
1%
23:00
14°
1014.4 hPa 14.0 mm 12.0°
3
0%
 06:08     21:30    Daglengte: 15:22 Donderdag 29 Jul
02:00
14°
1012.8 hPa 14.0 mm 11.7°
4
0%
05:00
16°
1011.9 hPa 14.0 mm 11.0°
4
1%
08:00
15°
1011.5 hPa 14.0 mm 12.5°
4
1%
11:00
19°
1011.1 hPa 14.0 mm 13.4°
7
0%
14:00
21°
1010.2 hPa 14.1 mm 13.6°
8
0%
17:00
20°
1009.9 hPa 14.7 mm 15.1°
7
1%
20:00
17°
1010.5 hPa 15.8 mm 15.3°
6
1%
23:00
14°
1011.5 hPa 15.9 mm 10.8°
4
1%
 06:09     21:28    Daglengte: 15:19 Vrijdag 30 Jul
02:00
13°
1012.2 hPa 15.9 mm 10.1°
4
1%
05:00
11°
1012.5 hPa 15.9 mm 10.0°
4
1%
08:00
13°
1012.7 hPa 15.9 mm 11.1°
4
1%
11:00
17°
1012.4 hPa 15.9 mm 11.4°
6
1%
14:00
19°
1011.9 hPa 15.9 mm 11.1°
6
1%
17:00
18°
1011.1 hPa 15.9 mm 11.5°
4
1%
20:00
16°
1010.8 hPa 15.9 mm 11.9°
4
1%
23:00
15°
1010.3 hPa 15.9 mm 11.8°
2
1%
 06:11     21:27    Daglengte: 15:16 Zaterdag 31 Jul
02:00
13°
1008.8 hPa 18.2 mm 12.8°
2
1%
05:00
14°
1006.7 hPa 19.7 mm 13.7°
3
1%
08:00
14°
1007.1 hPa 20.7 mm 13.8°
6
1%
11:00
17°
1009.3 hPa 20.9 mm 13.3°
7
1%
14:00
17°
1010.3 hPa 21.1 mm 12.6°
7
1%
17:00
19°
1010.2 hPa 21.9 mm 13.9°
8
1%
20:00
17°
1010.9 hPa 22.5 mm 12.4°
6
0%
23:00
13°
1012.6 hPa 22.5 mm 11.2°
4
0%
 06:12     21:25    Daglengte: 15:13 Zondag 01 Aug
02:00
12°
1013.4 hPa 22.5 mm 10.7°
4
1%
05:00
12°
1013.6 hPa   10.5°
4
1%
08:00
13°
1014.3 hPa 45.0 mm 11.2°
5
1%
14:00
20°
1014.9 hPa 46.5 mm 10.6°
7
0%
20:00
17°
1015.4 hPa 48.4 mm 13.1°
5
1%
 06:14     21:23    Daglengte: 15:09 Maandag 02 Aug
02:00
11°
1018.4 hPa 49.7 mm 10.3°
3
0%
08:00
11°
1020.4 hPa 49.8 mm 9.3°
3
0%
14:00
18°
1021.3 hPa 50.7 mm 9.8°
3
1%
20:00
16°
1021.2 hPa 52.1 mm 11.0°
2
1%
 06:15     21:22    Daglengte: 15:07 Dinsdag 03 Aug
02:00
10°
1022.5 hPa 52.4 mm 8.1°
2
0%
14:00
18°
1020.4 hPa 78.5 mm 9.0°
4
1%
20:00
16°
1018.8 hPa 52.4 mm 10.8°
4
1%
 06:17     21:20    Daglengte: 15:03 Woensdag 04 Aug
02:00
14°
1012.4 hPa 0.5 mm 9.2°
3
45%
08:00
14°
1012.5 hPa 0.2 mm 9.9°
4
48%
14:00
19°
1012.3 hPa 0.6 mm 10.5°
4
66%
20:00
19°
1012.2 hPa 1.3 mm 11.0°
3
66%
 06:18     21:18    Daglengte: 15:00 Donderdag 05 Aug
02:00
15°
1013.4 hPa 0.3 mm 10.1°
3
60%
08:00
14°
1013.4 hPa 0.3 mm 10.3°
3
58%
14:00
20°
1013.4 hPa 1.2 mm 10.9°
4
74%
20:00
19°
1013.4 hPa 1.3 mm 11.2°
3
74%
 06:19     21:17    Daglengte: 14:58 Vrijdag 06 Aug
02:00
15°
1014.0 hPa 0.5 mm 10.7°
2
62%
08:00
15°
1014.2 hPa 0.6 mm 10.7°
3
75%
14:00
20°
1014.2 hPa 0.6 mm 11.1°
4
70%
20:00
19°
1013.9 hPa 1.2 mm 11.3°
3
69%
 06:21     21:15    Daglengte: 14:54 Zaterdag 07 Aug
02:00
15°
1014.8 hPa 0.4 mm 10.1°
2
61%
08:00
14°
1014.8 hPa 0.5 mm 10.4°
3
63%
14:00
20°
1014.3 hPa 0.8 mm 11.1°
4
74%
20:00
19°
1013.9 hPa 2.1 mm 11.6°
3
64%
 06:22     21:13    Daglengte: 14:51 Zondag 08 Aug
02:00
15°
1014.8 hPa 0.3 mm 11.3°
3
56%
08:00
15°
1014.8 hPa 0.3 mm 11.4°
3
65%
14:00
21°
1014.7 hPa 1.2 mm 12.2°
4
61%
20:00
20°
1014.4 hPa 2.0 mm 12.3°
3
62%
 06:24     21:12    Daglengte: 14:48 Maandag 09 Aug
02:00
16°
1015.2 hPa 0.4 mm 11.8°
2
60%
08:00
15°
1015.2 hPa 0.8 mm 11.9°
3
55%
  CAPE Lifted Index Hail Supercell Tornado SRH 3km CL BTM PRES CL TOP PRES Swiss DWD icon SMHI TS
 06:02     21:35    Daglengte: 15:33 Vandaag
06:00 0 J/kg -0.9 K 0 % 0 % 0 % 0 m²/s² 0 0 -0.6 3
07:00 0 J/kg -0.5 K 0 % 0 % 0 % 0 m²/s² 0 0 -0.41 3
08:00 5 J/kg 0.0 K 0 % 0 % 0 % 0 m²/s² 0 0 0.6 3
09:00 211 J/kg -0.8 K 0 % 0 % 0 % 0 m²/s² 0 0 -0.32 2
10:00 285 J/kg -1.1 K 0 % 0 % 0 % 0 m²/s² 0 0 -0.83 3
11:00 248 J/kg -1.0 K 0 % 0 % 0 % 0 m²/s² 0 0 -0.82 3
12:00 428 J/kg -1.9 K 0 % 0 % 0 % 0 m²/s² 0 0 -1.6 80
13:00 481 J/kg -2.2 K 0 % 0 % 0 % 0 m²/s² 0 0 -1.69 80
14:00 505 J/kg -2.3 K 0 % 0 % 0 % 0 m²/s² 0 0 -1.4 61
15:00 680 J/kg -2.9 K 0 % 0 % 0 % 0 m²/s² 0 0 -2.57 61
16:00 543 J/kg -2.3 K 0 % 0 % 0 % 0 m²/s² 0 0 -2.03 3
17:00 973 J/kg -3.3 K 0 % 0 % 0 % 0 m²/s² 0 0 -1.83 3
18:00 838 J/kg -3.1 K 0 % 0 % 0 % 0 m²/s² 0 0 -0.37 80
19:00 964 J/kg -3.5 K 0 % 0 % 0 % 0 m²/s² 0 0 -1.61 80
20:00 552 J/kg -1.5 K 0 % 0 % 0 % 0 m²/s² 0 0 -1.47 80
21:00 387 J/kg -1.8 K 0 % 0 % 0 % 0 m²/s² 0 0 -1.41 80
22:00 324 J/kg -1.3 K 0 % 0 % 0 % 0 m²/s² 0 0 -0.04 3
23:00 132 J/kg -0.4 K 0 % 0 % 0 % 0 m²/s² 0 0 0.68 3
 06:04     21:34    Daglengte: 15:30 Morgen
00:00 0 J/kg -1.7 K 0 % 0 % 0 % 0 m²/s² 0 0 -0.29 3
01:00 89 J/kg -2.6 K 0 % 0 % 0 % 0 m²/s² 0 0 -0.92 3
02:00 227 J/kg -2.8 K 0 % 0 % 0 % 0 m²/s² 0 0 -1.33 2
03:00 280 J/kg -2.3 K 0 % 0 % 0 % 0 m²/s² 0 0 -1.25 2
04:00 246 J/kg -2.6 K 0 % 0 % 0 % 0 m²/s² 0 0 -1.67 3
05:00 112 J/kg -2.4 K 0 % 0 % 0 % 0 m²/s² 0 0 -1.62 3
06:00 201 J/kg -1.9 K 0 % 0 % 0 % 0 m²/s² 0 0 -1.6 3
07:00 140 J/kg -1.3 K 0 % 0 % 0 % 0 m²/s² 0 0 -0.7 3
08:00 83 J/kg -1.3 K 0 % 0 % 0 % 0 m²/s² 0 0 -0.16 3
09:00 5 J/kg -0.8 K 0 % 0 % 0 % 0 m²/s² 0 0 0.82 3
10:00 8 J/kg -0.6 K 0 % 0 % 0 % 0 m²/s² 0 0 0.57 80
11:00 18 J/kg -0.3 K 0 % 0 % 0 % 0 m²/s² 0 0 0.45 80
12:00 175 J/kg -0.7 K 0 % 0 % 0 % 0 m²/s² 0 0 0.05 80
13:00 580 J/kg -1.9 K 0 % 0 % 0 % 0 m²/s² 0 0 -1.24 80
14:00 696 J/kg -2.3 K 0 % 0 % 0 % 0 m²/s² 0 0 -1.55 95
15:00 669 J/kg -2.3 K 0 % 0 % 0 % 0 m²/s² 0 0 -1.55 80
16:00 798 J/kg -2.8 K 0 % 0 % 0 % 0 m²/s² 0 0 -1.9 3
17:00 846 J/kg -3.0 K 0 % 0 % 0 % 0 m²/s² 0 0 -1.41 95
18:00 933 J/kg -3.3 K 0 % 0 % 0 % 0 m²/s² 0 0 -2.01 95
19:00 990 J/kg -3.5 K 0 % 0 % 0 % 0 m²/s² 0 0 -1.67 80
20:00 880 J/kg -3.1 K 0 % 0 % 0 % 0 m²/s² 0 0 0.02 95
21:00 881 J/kg -3.2 K 0 % 0 % 0 % 0 m²/s² 0 0 -1.13 80
22:00 744 J/kg -2.8 K 0 % 0 % 0 % 0 m²/s² 0 0 0.14 2
23:00 594 J/kg -2.6 K 0 % 0 % 0 % 0 m²/s² 0 0 0.97 1
 06:05     21:33    Daglengte: 15:28 Dinsdag 27 Jul
00:00 180 J/kg -1.2 K 0 % 0 % 0 % 0 m²/s² 0 0 2.55 1
01:00 7 J/kg -0.4 K 0 % 0 % 0 % 0 m²/s² 0 0 3.44 2
02:00 0 J/kg -2.1 K 0 % 0 % 0 % 0 m²/s² 0 0 1.74 2
03:00 0 J/kg -2.8 K 0 % 0 % 0 % 0 m²/s² 0 0 0.95 3
04:00 0 J/kg -2.8 K 0 % 0 % 0 % 0 m²/s² 0 0 0.95 3
05:00 0 J/kg -2.3 K 0 % 0 % 0 % 0 m²/s² 0 0 1.54 3
06:00 6 J/kg -1.4 K 0 % 0 % 0 % 0 m²/s² 0 0 2.53 3
07:00 53 J/kg -1.8 K 0 % 0 % 0 % 0 m²/s² 0 0 0.18 3
08:00 225 J/kg -1.5 K 0 % 0 % 0 % 0 m²/s² 0 0 -0.33 3
09:00 518 J/kg -2.7 K 0 % 0 % 0 % 0 m²/s² 0 0 -1.77 3
10:00 691 J/kg -3.5 K 0 % 0 % 0 % 0 m²/s² 0 0 -3.02 3
11:00 727 J/kg -3.5 K 0 % 0 % 0 % 0 m²/s² 0 0 -3.02 3
12:00 430 J/kg -2.1 K 0 % 0 % 0 % 0 m²/s² 0 0 -1.62 3
13:00 201 J/kg -0.7 K 0 % 0 % 0 % 0 m²/s² 0 0 -0.37 3
14:00 54 J/kg 0.4 K 0 % 0 % 0 % 0 m²/s² 0 0 0.88 80
15:00 28 J/kg 1.4 K 0 % 0 % 0 % 0 m²/s² 0 0 1.88 80
16:00 231 J/kg -0.4 K 0 % 0 % 0 % 0 m²/s² 0 0 0.08 80
17:00 220 J/kg -0.4 K 0 % 0 % 0 % 0 m²/s² 0 0 0.29 80
18:00 57 J/kg 0.7 K 0 % 0 % 0 % 0 m²/s² 0 0 1.54 3
19:00 1 J/kg 0.4 K 0 % 0 % 0 % 0 m²/s² 0 0 2.08 3
20:00 69 J/kg -0.8 K 0 % 0 % 0 % 0 m²/s² 0 0 0.49 80
21:00 2 J/kg 0.4 K 0 % 0 % 0 % 0 m²/s² 0 0 1 80
22:00 40 J/kg -0.6 K 0 % 0 % 0 % 0 m²/s² 0 0 0.54 2
23:00 41 J/kg -0.6 K 0 % 0 % 0 % 0 m²/s² 0 0 0.54 3
 06:07     21:31    Daglengte: 15:24 Woensdag 28 Jul
00:00 46 J/kg -0.3 K 0 % 0 % 0 % 0 m²/s² 0 0 0.63 3
01:00 49 J/kg -0.8 K 0 % 0 % 0 % 0 m²/s² 0 0 -0.59 3
02:00 156 J/kg -1.0 K 0 % 0 % 0 % 0 m²/s² 0 0 -0.34 3
03:00 164 J/kg -0.7 K 0 % 0 % 0 % 0 m²/s² 0 0 0.53
04:00 34 J/kg 0.3 K 0 % 0 % 0 % 0 m²/s² 0 0 2.7
05:00 0 J/kg 0.8 K 0 % 0 % 0 % 0 m²/s² 0 0 2.54
Temp Baro Wind Neerslag
  EWN Forecast EWN WRFDA DWD ICON FMI HIRLAM MET Norway GFS
 06:02     21:35    Daglengte: 15:33 Vandaag
08:00 17.0° 1008.2 hPa 2.7 m/s 0.0 mm 16.5° 1007.8 hPa 2.8 m/s 0.0 mm 16.7° 1008.6 hPa 1.3 m/s -0.9 mm 17.4° 1008.2 hPa 3.4 m/s 0.0 mm 15.6° 1008.6 hPa 3.0 m/s
11:00 20.0° 1008.3 hPa 4.2 m/s 0.2 mm 19.3° 1008.2 hPa 4.0 m/s 0.0 mm 19.4° 1009.2 hPa 2.8 m/s 0.2 mm 21.7° 1008.2 hPa 5.0 m/s 0.0 mm 19.4° 1008.7 hPa 5.7 m/s
14:00 20.7° 1007.9 hPa 4.0 m/s 1.8 mm 22.5° 1007.1 hPa 4.6 m/s 0.8 mm 18.0° 1008.9 hPa 2.9 m/s 1.9 mm 23.8° 1007.3 hPa 5.9 m/s 0.0 mm 19.0° 1008.7 hPa 5.0 m/s
17:00 20.6° 1007.9 hPa 4.2 m/s 0.6 mm 22.1° 1006.8 hPa 3.7 m/s 10.8 mm 19.6° 1008.4 hPa 4.2 m/s 0.2 mm 23.1° 1007.0 hPa 5.4 m/s 0.0 mm 20.9° 1008.1 hPa 5.1 m/s
20:00 19.8° 1007.9 hPa 3.0 m/s 2.4 mm 18.4° 1007.8 hPa 4.6 m/s 20.6 mm 18.9° 1008.1 hPa 2.7 m/s 0.5 mm 21.3° 1007.4 hPa 3.8 m/s 0.0 mm 19.2° 1008.1 hPa 3.3 m/s
23:00 17.6° 1008.8 hPa 2.8 m/s 0.0 mm 17.6° 1007.9 hPa 3.4 m/s 49.5 mm 17.2° 1009.3 hPa 1.7 m/s 0.4 mm 18.6° 1008.7 hPa 3.6 m/s 0.0 mm 15.9° 1009.0 hPa 3.2 m/s
 06:04     21:34    Daglengte: 15:30 Morgen
02:00 16.5° 1008.7 hPa 2.8 m/s 0.0 mm 16.2° 1007.4 hPa 3.9 m/s 50.7 mm 16.0° 1009.0 hPa 2.2 m/s 0.0 mm 17.4° 1008.5 hPa 3.9 m/s 0.0 mm 14.8° 1008.6 hPa 3.2 m/s
05:00 16.2° 1008.8 hPa 3.2 m/s 0.0 mm 15.5° 1006.8 hPa 3.4 m/s 50.7 mm 16.0° 1009.3 hPa 2.3 m/s 0.1 mm 16.2° 1008.5 hPa 3.6 m/s 0.0 mm 15.0° 1009.2 hPa 4.2 m/s
08:00 16.7° 1009.7 hPa 3.9 m/s 0.0 mm 15.4° 1008.7 hPa 3.7 m/s 50.9 mm 16.6° 1009.9 hPa 3.6 m/s 0.0 mm 16.9° 1009.6 hPa 3.9 m/s 0.0 mm 15.2° 1010.3 hPa 5.2 m/s
11:00 18.1° 1010.5 hPa 4.2 m/s 7.4 mm 15.9° 1010.2 hPa 4.1 m/s 51.3 mm 17.1° 1010.6 hPa 4.1 m/s 0.8 mm 21.6° 1010.0 hPa 4.2 m/s 0.0 mm 16.4° 1011.6 hPa 5.7 m/s
14:00 18.8° 1010.6 hPa 4.5 m/s 11.7 mm 20.1° 1009.7 hPa 4.2 m/s 51.5 mm 18.2° 1010.8 hPa 4.3 m/s 1.5 mm 21.6° 1010.1 hPa 4.6 m/s 0.0 mm 18.6° 1011.8 hPa 5.9 m/s
17:00 19.6° 1010.6 hPa 4.0 m/s 8.6 mm 21.8° 1009.3 hPa 4.6 m/s 53.4 mm 19.1° 1010.8 hPa 3.3 m/s 1.7 mm 21.6° 1010.0 hPa 4.0 m/s 0.0 mm 18.5° 1012.1 hPa 4.5 m/s
20:00 18.5° 1011.1 hPa 2.5 m/s 13.8 mm 21.1° 1009.5 hPa 2.3 m/s 56.3 mm 17.8° 1011.5 hPa 2.5 m/s 4.9 mm 21.1° 1010.1 hPa 2.6 m/s 0.0 mm 19.0° 1012.0 hPa 2.6 m/s
23:00 16.7° 1012.3 hPa 2.2 m/s 4.0 mm 18.5° 1010.4 hPa 2.1 m/s 57.3 mm 16.2° 1012.6 hPa 1.9 m/s 0.2 mm 15.9° 1013.0 hPa 2.8 m/s
 06:05     21:33    Daglengte: 15:28 Dinsdag 27 Jul
02:00 16.0° 1012.3 hPa 2.7 m/s 0.0 mm 16.1° 1010.5 hPa 3.3 m/s 57.3 mm 15.4° 1012.6 hPa 2.2 m/s 0.0 mm 14.8° 1013.0 hPa 2.7 m/s
05:00 15.9° 1011.9 hPa 2.8 m/s 0.0 mm 16.2° 1010.0 hPa 2.6 m/s 57.3 mm 15.5° 1012.1 hPa 2.8 m/s 0.0 mm 14.9° 1012.5 hPa 2.8 m/s
08:00 16.9° 1011.6 hPa 3.2 m/s 0.0 mm 18.1° 1010.1 hPa 4.3 m/s 57.3 mm 16.8° 1011.7 hPa 3.2 m/s 0.0 mm 16.5° 1012.4 hPa 2.7 m/s
11:00 19.8° 1011.6 hPa 4.1 m/s 0.0 mm 21.6° 1011.0 hPa 5.3 m/s 57.3 mm 19.4° 1011.8 hPa 3.9 m/s 0.0 mm 19.9° 1012.0 hPa 4.8 m/s
14:00 18.1° 1012.0 hPa 3.9 m/s 13.7 mm 17.8° 1012.1 hPa 4.7 m/s 57.6 mm 18.2° 1011.9 hPa 3.7 m/s 1.3 mm 20.8° 1011.8 hPa 4.8 m/s
17:00 18.5° 1011.2 hPa 4.6 m/s 20.4 mm 21.7° 1010.4 hPa 6.4 m/s 58.2 mm 17.7° 1011.4 hPa 4.1 m/s 1.4 mm 17.7° 1012.3 hPa 5.9 m/s
20:00 17.6° 1010.9 hPa 4.5 m/s 13.2 mm 19.2° 1010.3 hPa 6.6 m/s 58.2 mm 17.1° 1011.0 hPa 3.9 m/s 0.4 mm 16.3° 1011.8 hPa 4.3 m/s
23:00 16.1° 1011.3 hPa 3.4 m/s 6.7 mm 16.6° 1009.6 hPa 4.2 m/s 58.5 mm 15.9° 1011.7 hPa 3.2 m/s 0.3 mm 14.1° 1012.4 hPa 4.1 m/s
 06:07     21:31    Daglengte: 15:24 Woensdag 28 Jul
02:00 15.8° 1011.4 hPa 3.6 m/s 0.0 mm 16.9° 1009.6 hPa 4.7 m/s 58.5 mm 15.5° 1011.8 hPa 3.3 m/s 0.0 mm 14.2° 1011.6 hPa 4.8 m/s
05:00 14.7° 1009.5 hPa 5.1 m/s 58.5 mm 14.7° 1009.5 hPa 5.1 m/s 58.5 mm 13.8° 1011.2 hPa 5.2 m/s
08:00 15.3° 1010.3 hPa 5.4 m/s 58.5 mm 15.3° 1010.3 hPa 5.4 m/s 58.5 mm 14.4° 1012.4 hPa 5.9 m/s
11:00 16.6° 1013.5 hPa 6.7 m/s 12.9 mm 16.6° 1013.5 hPa 6.7 m/s 12.9 mm
14:00 18.0° 1014.0 hPa 5.9 m/s 13.7 mm 18.0° 1014.0 hPa 5.9 m/s 13.7 mm
17:00 18.7° 1014.3 hPa 5.3 m/s 13.9 mm 18.7° 1014.3 hPa 5.3 m/s 13.9 mm
20:00 17.8° 1014.0 hPa 4.4 m/s 14.0 mm 17.8° 1014.0 hPa 4.4 m/s 14.0 mm
23:00 13.6° 1014.4 hPa 2.9 m/s 14.0 mm 13.6° 1014.4 hPa 2.9 m/s 14.0 mm
 06:08     21:30    Daglengte: 15:22 Donderdag 29 Jul
02:00 13.5° 1012.8 hPa 3.9 m/s 14.0 mm 13.5° 1012.8 hPa 3.9 m/s 14.0 mm
05:00 15.5° 1011.9 hPa 4.5 m/s 14.0 mm 15.5° 1011.9 hPa 4.5 m/s 14.0 mm
08:00 15.3° 1011.5 hPa 4.2 m/s 14.0 mm 15.3° 1011.5 hPa 4.2 m/s 14.0 mm
11:00 19.1° 1011.1 hPa 7.1 m/s 14.0 mm 19.1° 1011.1 hPa 7.1 m/s 14.0 mm
14:00 20.8° 1010.2 hPa 7.8 m/s 14.1 mm 20.8° 1010.2 hPa 7.8 m/s 14.1 mm
17:00 20.2° 1009.9 hPa 7.0 m/s 14.7 mm 20.2° 1009.9 hPa 7.0 m/s 14.7 mm
20:00 17.5° 1010.5 hPa 5.6 m/s 15.8 mm 17.5° 1010.4 hPa 5.6 m/s 15.8 mm
23:00 14.0° 1011.5 hPa 3.8 m/s 15.9 mm 14.0° 1011.5 hPa 3.8 m/s 15.9 mm
 06:09     21:28    Daglengte: 15:19 Vrijdag 30 Jul
02:00 12.6° 1012.2 hPa 3.7 m/s 15.9 mm 12.6° 1012.2 hPa 3.7 m/s 15.9 mm
05:00 11.5° 1012.5 hPa 3.9 m/s 15.9 mm 11.5° 1012.5 hPa 3.9 m/s 15.9 mm
08:00 13.2° 1012.7 hPa 4.3 m/s 15.9 mm 13.2° 1012.7 hPa 4.3 m/s 15.9 mm
11:00 17.5° 1012.4 hPa 5.7 m/s 15.9 mm 17.5° 1012.4 hPa 5.7 m/s 15.9 mm
14:00 19.3° 1011.9 hPa 5.5 m/s 15.9 mm 19.3° 1011.9 hPa 5.5 m/s 15.9 mm
17:00 18.3° 1011.1 hPa 3.8 m/s 15.9 mm 18.3° 1011.1 hPa 3.8 m/s 15.9 mm
20:00 16.1° 1010.8 hPa 3.8 m/s 15.9 mm 16.1° 1010.8 hPa 3.8 m/s 15.9 mm
23:00 14.6° 1010.3 hPa 2.1 m/s 15.9 mm 14.6° 1010.3 hPa 2.1 m/s 15.9 mm
 06:11     21:27    Daglengte: 15:16 Zaterdag 31 Jul
02:00 13.5° 1008.8 hPa 2.1 m/s 18.2 mm 13.5° 1008.8 hPa 2.1 m/s 18.2 mm
05:00 14.2° 1006.7 hPa 2.9 m/s 19.7 mm 14.2° 1006.7 hPa 2.9 m/s 19.7 mm
08:00 14.5° 1007.1 hPa 6.2 m/s 20.7 mm 14.5° 1007.1 hPa 6.2 m/s 20.7 mm
11:00 16.5° 1009.3 hPa 7.2 m/s 20.9 mm 16.5° 1009.3 hPa 7.2 m/s 20.9 mm
14:00 16.8° 1010.3 hPa 7.0 m/s 21.1 mm 16.8° 1010.3 hPa 7.0 m/s 21.1 mm
17:00 18.6° 1010.2 hPa 8.1 m/s 21.9 mm 18.6° 1010.2 hPa 8.1 m/s 21.9 mm
20:00 16.7° 1010.9 hPa 6.3 m/s 22.5 mm 16.7° 1010.9 hPa 6.3 m/s 22.5 mm
23:00 12.9° 1012.6 hPa 4.2 m/s 22.5 mm 12.9° 1012.6 hPa 4.2 m/s 22.5 mm
 06:12     21:25    Daglengte: 15:13 Zondag 01 Aug
02:00 12.3° 1013.4 hPa 4.1 m/s 22.5 mm 12.3° 1013.4 hPa 4.1 m/s 22.5 mm
05:00 11.6° 1013.6 hPa 4.0 m/s 22.5 mm 11.6° 1013.6 hPa 4.0 m/s 22.5 mm
08:00 13.2° 1014.3 hPa 4.7 m/s 22.5 mm 13.2° 1014.3 hPa 4.7 m/s 22.5 mm
14:00 19.5° 1014.9 hPa 6.9 m/s 23.6 mm 19.5° 1014.9 hPa 6.9 m/s 23.6 mm
20:00 16.7° 1015.4 hPa 5.2 m/s 24.7 mm 16.7° 1015.4 hPa 5.2 m/s 24.7 mm
 06:14     21:23    Daglengte: 15:09 Maandag 02 Aug
02:00 11.3° 1018.4 hPa 2.6 m/s 24.9 mm 11.3° 1018.4 hPa 2.6 m/s 24.9 mm
08:00 11.4° 1020.4 hPa 2.9 m/s 24.9 mm 11.4° 1020.4 hPa 2.9 m/s 24.9 mm
14:00 17.6° 1021.3 hPa 2.6 m/s 25.6 mm 17.6° 1021.3 hPa 2.6 m/s 25.6 mm
20:00 16.4° 1021.2 hPa 1.9 m/s 26.2 mm 16.4° 1021.2 hPa 1.9 m/s 26.2 mm
 06:15     21:22    Daglengte: 15:07 Dinsdag 03 Aug
02:00 10.4° 1022.5 hPa 2.1 m/s 26.2 mm 10.4° 1022.5 hPa 2.1 m/s 26.2 mm
14:00 18.1° 1020.4 hPa 3.8 m/s 26.2 mm 18.1° 1020.4 hPa 3.8 m/s 26.2 mm
20:00 16.2° 1018.8 hPa 3.6 m/s 26.2 mm 16.2° 1018.8 hPa 3.6 m/s 26.2 mm
 06:17     21:20    Daglengte: 15:03 Woensdag 04 Aug
02:00 13.9° 1012.4 hPa 2.6 m/s 0.5 mm
08:00 13.7° 1012.5 hPa 3.5 m/s 0.2 mm
14:00 19.5° 1012.3 hPa 4.4 m/s 0.6 mm
20:00 18.6° 1012.2 hPa 2.8 m/s 1.3 mm
 06:18     21:18    Daglengte: 15:00 Donderdag 05 Aug
02:00 14.6° 1013.4 hPa 2.7 m/s 0.3 mm
08:00 14.1° 1013.4 hPa 3.2 m/s 0.3 mm
14:00 19.6° 1013.4 hPa 3.7 m/s 1.2 mm
20:00 18.8° 1013.4 hPa 2.6 m/s 1.3 mm
 06:19     21:17    Daglengte: 14:58 Vrijdag 06 Aug
02:00 15.0° 1014.0 hPa 2.0 m/s 0.5 mm
08:00 14.6° 1014.2 hPa 2.5 m/s 0.6 mm
14:00 19.8° 1014.2 hPa 4.0 m/s 0.6 mm
20:00 18.9° 1013.9 hPa 2.6 m/s 1.2 mm
 06:21     21:15    Daglengte: 14:54 Zaterdag 07 Aug
02:00 14.7° 1014.8 hPa 1.9 m/s 0.4 mm
08:00 14.3° 1014.8 hPa 2.9 m/s 0.5 mm
14:00 19.8° 1014.3 hPa 3.8 m/s 0.8 mm
20:00 18.9° 1013.9 hPa 2.6 m/s 2.1 mm
 06:22     21:13    Daglengte: 14:51 Zondag 08 Aug
02:00 15.4° 1014.8 hPa 2.8 m/s 0.3 mm
08:00 15.0° 1014.8 hPa 3.3 m/s 0.3 mm
14:00 20.6° 1014.7 hPa 4.3 m/s 1.2 mm
20:00 19.7° 1014.4 hPa 3.2 m/s 2.0 mm
 06:24     21:12    Daglengte: 14:48 Maandag 09 Aug
02:00 15.8° 1015.2 hPa 2.3 m/s 0.4 mm
08:00 15.3° 1015.2 hPa 3.0 m/s 0.8 mm
FMI Hirlam - 7.5 km EWN WRFDA - 12 km DWD ICON - 7 km GFS - 25 km Basiskaart






























































Updatetijd (Europe/Amsterdam) Resolutie Lengte Stap
FMI Hirlam 02:00, 08:00, 14:00, 20:00 7.5 km 49h 1h
EWN WRFDA 05:30, 11:30, 17:30, 23:30 12 km 73h 1h
DWD ICON 23:45, 05:45, 11:45, 17:45 7 km 75h 1h
GFS 02:15, 08:15, 14:15, 20:15 25 km 237h 3h
30+ mm
25-30 mm
20-25 mm
15-20 mm
10-15 mm
6-10 mm
4-6 mm
2-4 mm
1-2 mm
0.5-1 mm
0.2-0.5 mm
0.1-0.2 mm
30+ mm
25-30 mm
20-25 mm
15-20 mm
10-15 mm
6-10 mm
4-6 mm
2-4 mm
1-2 mm
0.5-1 mm
0.2-0.5 mm
0.1-0.2 mm
Sneeuwval
Natte sneeuw
Hagel
Vorst
30+ mm
25-30 mm
20-25 mm
15-20 mm
10-15 mm
6-10 mm
4-6 mm
2-4 mm
1-2 mm
0.5-1 mm
0.2-0.5 mm
0.1-0.2 mm
Sneeuwval
Natte sneeuw
Hagel
Vorst
Onweer
50 mm
40 mm
30 mm
26 mm
22 mm
18 mm
14 mm
10 mm
9 mm
8 mm
7 mm
6 mm
5 mm
4.5 mm
4 mm
3.5 mm
3 mm
2.5 mm
2 mm
1.5 mm
1 mm
0.8 mm
0.6 mm
0.4 mm
0.2 mm
0.05 mm
35°
30°
25°
20°
15°
10°
-5°
-10°
-15°
-20°
-25°
-30°
-35°
33> m/s
29 m/s
25 m/s
21 m/s
17 m/s
14 m/s
11 m/s
8 m/s
5 m/s
3 m/s
0 m/s
2600 J/kg
2400 J/kg
2200 J/kg
2000 J/kg
1800 J/kg
1600 J/kg
1400 J/kg
1200 J/kg
1000 J/kg
800 J/kg
600 J/kg
400 J/kg
200 J/kg
70 dBZ
65 dBZ
60 dBZ
55 dBZ
50 dBZ
45 dBZ
40 dBZ
35 dBZ
30 dBZ
25 dBZ
20 dBZ
15 dBZ
10 dBZ
5 dBZ
-1 K
-2 K
-3 K
-4 K
-5 K
-6 K
-7 K
-8 K